Regional Weather Roundup
Issued by NWS

Home | Current Version | Previous Version | Text Only | Print | Product List | Glossary On
Versions: 1 2 3 4 5 6 7 8 9 10 11 12 13 14 15 16 17 18 19 20 21 22 23 24 25 26 27 28 29 30 31 32 33 34 35 36 37 38 39 40 41 42 43 44 45 46 47 48 49 50
000
ASUS43 KBIS 241810
RWRND

NORTH DAKOTA REGIONAL WEATHER ROUNDUP
NATIONAL WEATHER SERVICE BISMARCK ND
100 PM CDT WED AUG 24 2016

NOTE: "FAIR" INDICATES FEW OR NO CLOUDS BELOW 12,000 FEET WITH NO
SIGNIFICANT WEATHER AND/OR OBSTRUCTIONS TO VISIBILITY.


NDZ001>003-009>011-017-241900-
NORTHWEST NORTH DAKOTA

CITY           SKY/WX    TMP DP  RH WIND       PRES   REMARKS
WILLISTON      CLOUDY    61  47  59 W17G28    30.03S
6HR MIN TEMP:  55; 6HR MAX TEMP:  64; 6HR PCP: TRACE;

MINOT          PTSUNNY   67  48  50 W25G33    29.92S
MINOT AFB      PTSUNNY   66  49  53 W23G32    29.91S
$$

NDZ018>021-031>035-040>046-241900-
SOUTHWEST NORTH DAKOTA

CITY           SKY/WX    TMP DP  RH WIND       PRES   REMARKS
BISMARCK       CLOUDY    68  48  48 W25G36    30.02S
6HR MIN TEMP:  57; 6HR MAX TEMP:  71;

DICKINSON      MOSUNNY   68  42  38 W24G35    30.06R
GARRISON         N/A     67  47  48 W22G38    29.97S
6HR MIN TEMP:  52; 6HR MAX TEMP:  67;

HETTINGER ARPT MOSUNNY   70  47  43 W24G36    30.12F
$$

NDZ004>008-012>016-024-026-027-054-241900-
NORTHEAST NORTH DAKOTA

CITY           SKY/WX    TMP DP  RH WIND       PRES   REMARKS
GRAND FORKS    MOSUNNY   72  54  53 W18G28    29.86S
GRND FRKS AFB  MOSUNNY   71  55  55 W18G26    29.88S
DEVILS LAKE    CLOUDY    66  51  58 W18G24    29.91R
$$

NDZ022-023-025-028>030-036>039-047>053-241900-
SOUTHEAST NORTH DAKOTA

CITY           SKY/WX    TMP DP  RH WIND       PRES   REMARKS
FARGO          MOSUNNY   74  53  48 W17G24    29.91R
6HR MIN TEMP:  56; 6HR MAX TEMP:  75;

JAMESTOWN      PTSUNNY   70  53  54 W21G30    29.96S
$$





USA.gov is the U.S. government's official web portal to all federal, state and local government web resources and services.